• MPC Preparation (Info)

  • MPEC 2002-P60 : 2002 PG80

    The following Minor Planet Electronic Circular may be linked-to from your own Web pages, but must not otherwise be redistributed electronically.

    A form allowing access to any MPEC is at the bottom of this page.


    Read MPEC 2002-P59 Read MPEC 2002-P61


    M.P.E.C. 2002-P60                                Issued 2002 Aug. 14, 17:53 UT
    
         The Minor Planet Electronic Circulars contain information on unusual
             minor planets and routine data on comets.  They are published
       on behalf of Commission 20 of the International Astronomical Union by the
              Minor Planet Center, Smithsonian Astrophysical Observatory,
                              Cambridge, MA 02138, U.S.A.
    
                 Prepared using the Tamkin Foundation Computer Network
    
                                  MPC@CFA.HARVARD.EDU
              URL http://cfa-www.harvard.edu/iau/mpc.html  ISSN 1523-6714
    
                                       2002 PG80
    
    Observations:
         K02P80G  C2002 07 12.37018 21 27 51.30 -05 31 19.2          20.0        644
         K02P80G  C2002 07 12.38083 21 27 51.21 -05 31 17.2          20.1        644
         K02P80G  C2002 07 12.39408 21 27 51.09 -05 31 14.5          19.8        644
         K02P80G  C2002 07 21.36053 21 25 43.77 -05 10 38.1          19.7        644
         K02P80G  C2002 07 21.38375 21 25 43.09 -05 10 36.2          19.8        644
         K02P80G  C2002 07 21.40460 21 25 42.45 -05 10 34.9          19.9        644
         K02P80G* C2002 08 12.23014 21 08 51.69 -06 01 00.2          19.0        704
         K02P80G  C2002 08 12.24442 21 08 50.59 -06 01 06.1          19.1        704
         K02P80G  C2002 08 12.25929 21 08 49.51 -06 01 10.9          19.3        704
         K02P80G  C2002 08 12.27354 21 08 48.51 -06 01 15.8          19.6        704
         K02P80G  C2002 08 12.28778 21 08 47.54 -06 01 20.3          19.4        704
         K02P80G  C2002 08 12.97060 21 08 03.19 -06 05 41.6          17.8 R      J95
         K02P80G  C2002 08 12.97911 21 08 02.50 -06 05 44.5          18.1 R      J95
         K02P80G  C2002 08 13.28803 21 07 42.24 -06 07 39.5          18.5        704
         K02P80G  C2002 08 13.29815 21 07 41.48 -06 07 41.9          19.5        704
         K02P80G  C2002 08 13.29824 21 07 41.45 -06 07 43.2          19.4        704
         K02P80G  C2002 08 13.30319 21 07 41.09 -06 07 45.4          19.1        704
         K02P80G  C2002 08 13.31388 21 07 40.38 -06 07 49.6          18.8        704
         K02P80G  C2002 08 13.31397 21 07 40.36 -06 07 50.0          18.7        704
         K02P80G  C2002 08 13.31847 21 07 40.03 -06 07 51.2          19.1        704
         K02P80G  C2002 08 13.32972 21 07 39.24 -06 07 55.8          18.8        704
         K02P80G  C2002 08 13.32981 21 07 39.19 -06 07 55.7          18.8        704
         K02P80G  C2002 08 13.33317 21 07 38.99 -06 07 57.2          19.2        704
         K02P80G  C2002 08 13.34541 21 07 38.12 -06 08 01.5          18.5        704
         K02P80G  C2002 08 13.34550 21 07 38.10 -06 08 01.5          18.8        704
         K02P80G  C2002 08 13.34791 21 07 37.85 -06 08 01.8          18.6        704
         K02P80G  C2002 08 13.34831 21 07 38.13 -06 08 05.9          18.5 R      848
         K02P80G  C2002 08 13.35639 21 07 37.47 -06 08 11.4          19.0 R      848
         K02P80G  C2002 08 13.36109 21 07 36.98 -06 08 07.8          18.6        704
         K02P80G  C2002 08 13.36118 21 07 36.97 -06 08 07.1          19.4        704
         K02P80G  C2002 08 13.36453 21 07 36.97 -06 08 13.2          18.3 R      848
         K02P80G  C2002 08 13.37003 21 07 36.61 -06 08 16.0                      848
         K02P80G  C2002 08 14.31432 21 06 34.12 -06 14 28.3          18.3 R      734
         K02P80G  C2002 08 14.31987 21 06 33.68 -06 14 31.0          18.4 R      734
         K02P80G  C2002 08 14.34455 21 06 32.53 -06 14 42.9          19.7 R      848
         K02P80G  C2002 08 14.35286 21 06 31.77 -06 14 45.7          18.7 R      848
         K02P80G  C2002 08 14.35806 21 06 31.36 -06 14 47.3          18.5 R      848
         K02P80G  C2002 08 14.36326 21 06 31.06 -06 14 49.2          19.9 R      848
    
    Observer details:
    644 Palomar Mountain/NEAT.  Observers E. F. Helin, S. Pravdo, K. Lawrence,
        K. Kuluhiwa, M. Hicks, R. Thicksten.  1.2-m Schmidt + CCD.
    704 Lincoln Laboratory ETS, New Mexico.  Observers M. Blythe, F. Shelly,
        M. Bezpalko, R. Huber, L. Manguso, S. Adams, D. Torres, T. Brothers,
        S. Partridge.  Measurers J. Stuart, R. Sayer, J. B. Evans, H. Viggh.  1.0-m
        f/2.15 reflector + CCD.
    734 Farpoint Observatory.  Observer G. Hug.  0.30-m Schmidt-Cassegrain + CCD.
    848 Tenagra Observatory, Cottage Grove.  Observers M. Schwartz, P. R.
        Holvorcem.  Measurer P. R. Holvorcem.  0.36-m f/11
        Schmidt-Cassegrain + CCD.
    J95 Great Shefford.  Observer P. Birtwhistle.  0.3-m Schmidt-Cassegrain + CCD.
    
    Orbital elements:
    2002 PG80
    Epoch 2002 May 6.0 TT = JDT 2452400.5                   MPC
    M 292.26211              (2000.0)            P               Q
    n   0.34512877     Peri.  211.44783     +0.79508078     -0.60645201
    a   2.0128679      Node   185.90428     +0.57118847     +0.75310483
    e   0.4380592      Incl.    4.40785     +0.20393695     +0.25504719
    P   2.86           H   18.8           G   0.15           U   7
    Residuals in seconds of arc
    020712 644  0.3+  0.1-    020813 704  0.3+  0.0     020813 848  0.8-  0.9-
    020712 644  0.4+  0.3-    020813 704  0.2-  1.5+    020813 848 (2.1-  3.2-)
    020712 644  0.3+  0.2-    020813 704  0.5-  0.2+    020813 704  0.1+  0.2-
    020721 644  0.1-  0.0     020813 704  0.6-  0.1-    020813 704  0.0   0.5+
    020721 644  0.3-  0.3+    020813 704  0.3+  0.1-    020813 848  0.9-  1.9-
    020721 644  0.9-  0.1+    020813 704  0.1+  0.5-    020813 848 (0.4-  2.6-)
    020812 704 (2.9+  1.7+)   020813 704  0.0   0.0     020814 734  0.2+  0.2-
    020812 704  1.5+  1.1+    020813 704  0.3+  0.2-    020814 734  0.4-  0.6-
    020812 704  1.1+  1.7+    020813 704  0.4-  0.1-    020814 848 (2.5+  1.3-)
    020812 704 (1.3+  2.0+)   020813 704  0.2+  0.3-    020814 848  0.1+  0.7-
    020812 704 (1.9+  2.8+)   020813 704  0.4+  0.1+    020814 848  0.5-  0.2-
    020812 J95  0.8+  0.2-    020813 704  0.2+  0.1+    020814 848  0.6+  0.0
    020812 J95  0.6-  0.2+    020813 704  1.0-  0.7+
    
    Ephemeris:
    2002 PG80                a,e,i = 2.01, 0.44, 4                   q = 1.1311
    Date    TT    R. A. (2000) Decl.     Delta      r     Elong.  Phase     V
    2002 08 04    21 16.97   -05 22.8    0.540    1.545   166.9     8.5    19.0
    2002 08 14    21 06.92   -06 12.1    0.479    1.487   169.4     7.2    18.6
    2002 08 24    20 55.64   -07 34.8    0.435    1.430   161.1    13.2    18.5
    2002 09 03    20 45.53   -09 22.4    0.406    1.375   149.9    21.6    18.6
    2002 09 13    20 39.34   -11 21.8    0.388    1.323   138.8    30.1    18.7
    2002 09 23    20 39.29   -13 17.5    0.378    1.275   128.8    37.9    18.7
    2002 10 03    20 46.47   -14 57.5    0.372    1.231   120.4    44.5    18.8
    2002 10 13    21 01.34   -16 12.0    0.369    1.195   113.6    49.9    18.9
    2002 10 23    21 23.72   -16 51.5    0.367    1.165   108.6    54.0    18.9
    2002 11 02    21 52.98   -16 47.5    0.366    1.144   105.3    56.8    19.0
    2002 11 12    22 28.27   -15 50.7    0.367    1.133   103.5    58.2    19.0
    2002 11 22    23 08.23   -13 55.3    0.373    1.132   103.1    58.2    19.0
    2002 12 02    23 50.98   -11 03.0    0.385    1.141   103.7    57.1    19.1
    2002 12 12    00 34.67   -07 24.4    0.407    1.159   105.0    55.1    19.2
    2002 12 22    01 17.52   -03 19.5    0.441    1.186   106.4    52.7    19.3
    2003 01 01    01 58.33   +00 49.2    0.488    1.221   107.4    50.2    19.5
    2003 01 11    02 36.62   +04 43.9    0.548    1.263   107.7    47.9    19.8
    2003 01 21    03 12.32   +08 12.7    0.621    1.310   107.2    45.8    20.1
    2003 01 31    03 45.65   +11 10.4    0.708    1.361   105.9    44.1    20.4
    2003 02 10    04 16.98   +13 36.7    0.806    1.416   103.9    42.6    20.7
    2003 02 20    04 46.61   +15 32.6    0.915    1.472   101.3    41.2    21.1
    2003 03 02    05 14.81   +17 00.7    1.034    1.530    98.1    39.9    21.4
    2003 03 12    05 41.81   +18 03.7    1.162    1.589    94.7    38.6    21.7
    2003 03 22    06 07.75   +18 44.2    1.297    1.648    90.9    37.2    22.0
    2003 04 01    06 32.72   +19 04.6    1.438    1.707    86.9    35.8    22.2
    2003 04 11    06 56.82   +19 07.1    1.585    1.765    82.8    34.3    22.5
    
    Timothy B. Spahr             (C) Copyright 2002 MPC           M.P.E.C. 2002-P60
    

    Read MPEC 2002-P59 Read MPEC 2002-P61


    MPEC number:

    Enter an MPEC number in one of the following forms:

    • 1997-B01 (the full form)
    • J97B01 (the packed version of the full form)
    • B01 (the abbreviated form)